Probability
4 1 0 0 0 0 0 0 0 0 0 0 0 0 0 0 0 0 0 0 0 0 0 0 0 0 0 0 0 0 1 3 4 3 1 0 0 0 1 0 0 0 0 0 1 1 1 2 1
2 1 1 0 0 0 0 0 0 0 0 0 0 0 0 0 0 0 0 0 0 0 0 0 0 0 0 0 1 1 2 3 5 4 2 1 0 0 1 0 0 0 0 0 0 1 1 2 2
2 2 2 1 0 0 0 0 1 1 0 0 0 0 0 0 0 0 0 0 0 0 0 0 0 1 1 1 2 3 5 5 6 5 4 3 1 0 0 0 0 0 0 0 0 2 3 3 3
2 2 2 1 0 0 0 1 2 2 1 0 0 0 0 0 0 1 1 0 0 0 0 0 0 1 2 2 2 3 5 7 6 5 5 4 2 1 0 0 0 0 0 0 1 3 3 3 3
3 3 2 1 0 0 1 2 3 2 1 0 0 0 0 0 1 2 2 1 0 0 0 0 0 1 1 1 1 1 3 5 5 4 4 4 3 2 1 0 0 0 0 0 0 1 2 2 2
3 3 1 0 0 0 1 2 3 2 1 0 0 0 0 1 2 3 2 1 0 0 0 0 0 0 0 0 0 1 3 3 3 3 3 3 3 3 2 1 0 0 0 0 0 0 0 1 1
3 2 1 0 0 0 0 1 2 2 1 0 0 0 0 1 2 3 2 0 0 0 0 0 0 0 0 0 0 1 2 3 3 3 3 3 3 3 2 1 0 0 0 0 0 0 0 0 0
2 2 1 0 0 0 0 0 1 3 3 1 0 0 0 1 2 3 2 1 0 0 0 0 0 0 0 0 0 0 1 2 3 3 3 3 3 3 2 1 0 0 0 0 0 0 0 0 0
1 1 0 0 0 0 0 0 1 3 4 2 0 0 0 1 3 3 3 1 0 0 0 0 0 0 0 0 0 0 0 1 2 3 3 3 3 3 2 1 0 0 0 0 0 0 0 0 0
1 1 0 0 0 0 0 1 2 3 3 2 0 0 1 2 3 3 3 2 1 0 0 0 0 0 0 0 0 0 0 0 1 3 3 3 3 3 2 0 0 1 0 0 0 0 0 0 0
0 0 0 0 0 0 1 2 2 2 1 1 1 1 2 2 2 2 2 2 2 1 1 0 0 0 0 0 0 0 0 0 1 2 3 3 3 3 2 1 0 0 0 0 0 0 0 0 0
0 0 0 0 0 0 1 1 1 1 0 0 1 2 3 2 2 1 1 1 2 2 2 1 0 0 0 0 0 0 0 0 0 2 3 3 3 3 3 2 0 0 0 0 0 0 0 0 0
0 0 0 0 0 0 0 0 0 0 0 0 1 3 3 2 1 1 0 1 2 3 2 1 0 0 0 0 0 0 0 0 1 2 3 3 3 3 3 1 0 0 0 0 0 0 0 0 0
0 0 0 0 0 0 0 0 0 1 1 1 1 3 2 1 0 0 1 2 2 2 1 0 0 0 0 0 0 0 0 0 1 2 3 3 3 3 2 1 0 0 0 0 0 0 0 0 0
0 0 0 0 0 0 0 0 0 1 2 1 2 3 3 1 1 0 1 2 1 1 0 0 0 0 0 0 0 0 0 0 1 2 2 2 2 1 1 0 0 0 0 0 0 0 0 0 0
0 0 0 0 0 0 0 0 0 1 1 1 2 3 3 3 2 2 2 2 1 0 0 0 0 0 0 0 0 0 0 0 0 1 1 1 1 0 0 0 0 0 0 0 0 0 0 0 0
0 0 0 0 0 0 0 0 0 0 0 0 2 3 3 3 3 3 3 1 0 0 0 0 0 0 0 1 1 0 0 0 0 0 0 0 0 0 0 0 0 0 0 0 0 0 0 0 0
0 0 0 0 0 0 0 0 0 0 0 0 1 2 3 3 4 4 3 1 0 0 0 0 0 0 1 2 2 1 1 1 0 0 0 0 0 0 0 0 0 0 0 0 0 0 0 0 0
0 0 0 0 0 0 0 0 0 0 0 0 0 1 2 4 5 5 3 1 1 1 1 0 0 0 2 3 3 2 3 2 1 0 0 0 0 0 0 0 0 0 0 0 0 0 0 0 0
0 0 0 0 0 0 0 0 0 0 0 0 0 0 1 3 5 5 4 3 3 4 2 0 0 0 1 2 3 4 5 4 2 1 0 0 0 0 0 0 0 0 0 0 0 0 0 0 0
0 0 0 0 0 0 0 0 0 0 0 0 0 0 1 2 4 5 5 5 5 4 2 0 0 0 0 2 4 5 5 4 3 1 0 0 0 0 0 0 0 0 0 0 0 0 0 0 0
0 0 0 0 0 0 0 0 0 0 0 0 1 1 1 2 4 5 6 5 4 3 1 0 1 1 0 1 3 4 4 3 2 1 0 0 0 0 0 0 0 0 0 0 0 0 0 0 0
0 0 0 0 0 0 0 0 0 0 1 1 1 1 2 4 6 4 4 5 4 3 1 1 1 2 1 1 3 3 3 3 1 0 0 0 0 0 0 0 0 0 0 0 0 0 0 0 0
0 0 0 0 0 0 0 0 0 1 2 2 1 1 3 6 7 4 2 3 3 3 2 1 1 2 2 2 3 3 3 2 1 0 0 0 0 0 0 0 0 0 0 0 0 0 0 0 0
0 0 0 0 0 0 0 0 1 2 2 1 0 1 3 5 5 3 1 2 2 2 2 1 0 1 1 1 3 3 3 2 1 0 0 0 0 0 0 0 0 0 0 0 0 0 0 1 1
0 0 0 0 0 0 0 0 1 2 1 0 0 1 2 2 2 1 0 1 1 1 1 0 0 0 1 1 2 4 3 2 1 2 1 0 0 0 0 1 1 1 1 1 1 0 0 1 2
0 0 0 0 0 0 0 0 1 1 1 1 1 1 1 1 0 0 0 0 0 0 0 1 2 3 3 4 4 4 4 3 3 3 2 1 0 0 1 2 2 2 2 2 2 1 1 1 1
0 0 0 0 0 0 0 0 1 2 3 3 2 2 2 1 1 2 1 0 1 1 1 2 5 6 6 6 5 5 4 3 3 3 2 1 0 0 1 2 3 3 3 3 3 3 2 1 0
0 0 0 0 0 0 0 0 1 2 4 5 4 4 4 3 4 4 2 1 1 1 2 4 6 8 7 6 5 5 4 4 3 3 2 1 0 1 1 2 3 3 3 3 3 3 3 2 1
0 0 0 0 0 0 0 0 1 2 5 6 6 5 5 5 5 4 3 1 0 1 2 4 7 9 8 6 5 6 6 4 3 3 2 1 1 2 2 2 3 3 3 3 3 3 3 3 3
Wind_Speed
10 6 3 1 4 5 3 2 1 2 3 2 5 6 5 3 2 2 0 3 3 2 2 3 5 7 9 10 10 11 12 12 13 13 13 14 13 13 13 13 12 12 12 12 12 12 13 13 14
6 5 1 2 5 3 2 2 3 3 4 4 5 5 5 4 3 4 2 2 3 3 2 3 6 8 9 10 10 10 11 11 11 12 12 12 12 12 12 12 11 11 11 11 11 12 12 13 13
6 3 2 4 3 2 1 1 4 5 4 3 4 4 4 3 3 3 2 4 4 3 3 3 7 9 10 10 9 9 10 10 10 10 11 11 11 11 11 11 10 10 10 10 11 11 12 12 12
3 1 3 5 3 0 3 3 4 5 4 5 4 5 4 3 2 3 6 6 5 3 3 3 8 9 9 9 9 9 9 9 9 9 10 10 10 10 10 10 9 9 9 9 10 10 11 11 11
1 3 5 4 2 2 3 4 3 3 3 4 5 5 4 4 6 8 7 6 4 3 2 3 7 8 8 9 9 8 8 8 8 8 9 9 9 9 9 9 8 8 8 9 9 10 10 10 10
3 3 4 2 2 3 2 2 4 6 5 4 4 4 3 3 5 6 6 5 4 3 2 2 6 6 7 7 7 8 8 8 7 8 8 8 8 8 7 8 7 8 8 8 8 8 8 8 9
3 4 2 2 2 2 2 2 3 5 5 3 4 4 2 2 3 5 6 5 4 3 3 2 2 3 5 5 6 6 7 7 6 7 7 7 7 7 7 6 7 7 7 6 7 7 7 7 7
3 4 2 1 2 2 3 3 3 5 4 4 4 5 3 4 5 6 6 5 4 3 3 2 2 2 2 2 4 5 6 6 6 6 6 6 6 6 6 5 5 6 6 6 6 6 6 6 6
3 4 1 4 5 3 4 4 3 3 5 3 3 4 5 10 8 7 5 4 3 2 2 2 2 2 2 1 3 3 4 5 4 4 5 5 3 3 3 3 4 5 5 5 5 4 4 4 4
3 3 5 4 6 6 5 5 5 4 4 3 5 7 10 9 8 7 6 4 3 2 1 1 1 2 2 1 2 2 2 2 2 2 3 2 2 2 2 2 3 3 3 3 3 3 3 2 2
3 4 2 2 5 7 6 4 3 7 2 4 8 11 10 8 7 6 5 4 3 2 1 1 1 1 1 1 1 1 1 1 2 2 2 2 2 1 2 1 1 2 2 2 2 2 1 1 1
3 1 2 3 5 6 7 5 4 3 4 6 10 12 10 8 7 7 6 4 3 3 2 1 1 1 1 1 1 1 1 1 1 1 2 2 1 1 1 1 1 1 1 1 1 1 1 1 1
2 1 2 5 6 6 7 5 5 2 7 10 10 10 9 8 6 4 4 4 3 3 3 2 2 1 1 1 0 1 1 1 1 1 1 2 1 1 1 0 1 0 1 1 1 1 1 1 1
2 4 4 5 6 4 6 4 4 4 9 10 10 8 8 7 7 5 5 4 4 4 3 2 2 2 1 1 1 1 1 2 2 1 1 2 2 1 1 1 0 0 0 1 1 1 0 0 1
4 6 6 3 4 3 6 3 2 7 10 10 9 8 7 6 6 7 7 6 5 4 3 3 3 2 2 1 1 1 1 2 2 1 1 2 2 2 1 1 0 0 1 1 1 1 1 1 1
5 5 2 1 2 3 5 2 3 8 10 8 8 7 7 6 6 6 6 5 5 4 4 3 3 3 2 1 1 1 1 2 1 1 1 1 2 2 2 1 1 1 1 1 1 1 1 1 1
4 2 2 2 3 4 4 3 4 8 9 8 7 7 6 5 5 5 6 6 6 5 5 3 2 3 3 2 2 2 2 1 1 1 1 1 2 2 2 1 1 1 1 1 1 1 1 1 0
3 3 3 4 3 4 3 3 6 9 9 9 8 7 7 7 7 6 6 6 5 5 4 4 2 2 2 2 2 2 2 1 1 1 1 1 1 2 2 2 1 2 2 1 1 1 1 1 1
5 4 3 4 3 4 5 4 7 10 9 9 9 8 8 8 6 5 5 5 5 4 4 4 3 2 2 1 1 1 1 0 0 0 1 1 2 2 2 2 2 2 2 2 2 2 1 1 1
4 3 3 2 1 3 2 3 5 9 12 11 11 10 10 7 5 6 6 5 5 5 4 4 3 3 3 2 2 1 1 1 1 0 0 1 2 2 2 2 2 2 2 2 2 2 1 0 1
3 5 5 3 2 3 3 3 3 5 6 7 8 8 8 11 10 8 7 7 6 6 6 6 5 4 4 3 2 2 2 2 1 1 0 0 1 2 2 2 2 2 2 2 2 2 3 1 0
4 6 6 5 4 1 2 3 6 5 5 8 9 9 9 9 9 9 9 8 8 8 6 6 5 4 3 4 3 3 2 1 1 1 0 0 1 1 1 2 2 2 1 2 2 2 2 2 1
5 1 4 4 5 2 1 1 7 1 6 10 11 12 11 10 10 10 10 10 9 7 7 6 5 4 4 4 4 3 2 2 1 1 1 1 1 0 0 1 2 2 1 2 1 2 2 2 2
5 7 7 6 5 0 3 3 7 5 8 8 10 12 12 11 11 10 9 8 7 6 6 5 5 4 4 4 4 4 4 3 2 1 1 0 0 1 1 1 1 1 1 1 2 2 2 2 2
5 7 4 4 3 5 2 3 10 7 7 8 9 10 11 11 11 10 10 9 8 8 7 6 6 5 4 4 4 4 4 4 4 3 2 1 0 0 0 0 1 1 1 1 1 1 1 2 2
5 9 9 6 5 4 1 5 9 5 3 4 5 6 8 10 10 10 10 10 9 9 8 7 7 6 5 5 4 3 4 3 2 3 2 2 1 1 1 1 1 1 1 1 1 1 1 1 2
6 4 6 8 3 0 4 6 9 3 2 0 3 6 8 9 10 10 10 10 9 9 9 8 8 6 6 5 4 4 4 3 3 3 3 2 2 1 1 1 1 1 1 1 1 1 1 1 1
6 9 6 7 6 3 4 4 6 5 4 3 3 5 6 6 8 8 8 8 8 8 7 7 7 7 5 5 5 4 4 3 3 3 3 2 2 1 1 1 1 1 1 1 1 1 0 1 0
4 5 6 5 6 7 4 8 7 7 6 5 4 4 6 7 7 7 6 7 6 6 6 6 6 5 5 5 5 4 4 3 3 3 3 2 2 2 2 1 1 1 1 1 1 1 1 1 0
4 7 8 7 4 4 5 8 4 4 4 4 4 4 4 5 5 5 6 6 6 6 5 6 6 5 5 5 5 4 4 3 3 3 2 2 2 2 2 2 2 1 1 1 1 1 1 1 1
Wind_Direction
153 147 150 131 55 48 24 354 75 73 57 50 71 84 90 72 95 135 40 125 117 110 109 116 117 114 113 110 107 103 103 105 107 107 109 111 111 110 111 112 112 113 115 119 122 124 128 128 128
150 161 173 62 71 55 346 348 78 82 127 123 77 73 72 61 63 102 111 130 115 119 109 119 122 120 118 115 111 109 108 108 108 108 109 111 113 114 115 115 116 118 120 122 125 127 131 130 129
166 192 79 63 76 137 166 117 111 104 106 87 80 63 70 81 101 126 137 126 106 104 103 121 125 125 121 118 116 114 113 111 109 109 110 111 114 117 118 118 119 121 121 122 126 128 131 132 131
160 60 54 63 50 219 159 150 126 116 74 55 84 69 61 58 119 127 121 120 111 98 95 115 126 125 123 121 121 119 116 115 114 112 112 114 115 116 118 119 119 121 122 120 122 125 131 133 133
77 73 56 47 25 37 108 139 124 97 78 67 78 81 52 25 88 110 118 120 115 93 82 105 122 128 128 129 127 124 124 123 120 118 118 118 118 118 119 120 120 120 118 117 123 126 129 134 137
65 67 69 53 41 58 92 107 98 91 92 85 81 84 51 58 97 114 114 110 104 102 90 103 127 130 129 132 133 134 133 130 130 127 121 121 122 122 121 122 123 120 117 117 121 127 128 133 138
103 89 103 121 92 96 145 108 108 113 102 99 104 92 88 95 108 112 104 98 89 83 79 67 87 113 126 131 138 141 138 133 132 131 127 124 126 126 126 125 126 125 121 119 120 124 130 135 141
136 98 84 120 139 163 145 110 105 112 101 109 105 124 161 153 118 100 90 85 82 74 63 58 58 63 77 106 131 136 137 133 133 137 134 127 118 114 118 121 129 130 125 125 125 124 124 129 139
115 78 167 192 169 170 147 122 115 80 101 85 79 121 135 129 119 106 94 83 86 91 54 55 59 62 62 76 110 111 127 131 125 126 120 98 75 77 94 119 130 129 126 123 119 116 116 124 131
104 135 218 200 165 151 146 134 139 108 96 78 79 93 116 127 130 129 131 140 150 150 106 68 72 68 63 89 68 46 61 72 73 75 86 83 81 77 91 96 123 120 112 108 105 98 87 88 96
152 187 215 159 142 132 131 124 114 126 147 171 149 142 141 141 143 150 157 162 173 171 156 124 124 91 86 73 75 53 60 67 70 83 97 93 79 66 56 52 51 45 55 43 58 63 65 79 87
150 235 158 135 120 124 133 123 112 149 184 150 145 146 147 154 164 172 172 173 165 158 179 170 143 119 116 99 97 109 124 121 120 124 124 111 98 80 70 67 64 56 59 62 61 66 57 64 61
107 68 80 104 97 110 109 113 119 108 120 124 132 142 155 165 173 180 175 167 161 171 186 186 160 159 151 123 187 162 180 167 160 155 149 141 137 139 125 101 92 96 89 91 91 94 85 69 67
102 86 79 85 92 99 110 100 99 137 135 135 146 159 170 176 177 171 169 173 180 187 192 185 171 173 152 154 182 191 178 170 159 162 167 156 151 158 158 148 130 147 125 121 125 125 115 79 81
81 74 50 55 83 111 106 76 153 155 145 151 164 170 176 185 182 182 182 181 182 183 182 180 180 163 158 168 165 157 159 151 153 164 166 156 149 157 161 162 163 168 120 104 93 81 78 69 80
62 68 73 278 106 130 119 199 182 157 155 167 175 178 182 192 195 190 181 178 174 167 167 186 181 157 160 146 125 105 117 133 147 150 148 155 155 156 147 144 161 151 114 102 99 78 69 53 61
46 114 181 230 180 153 156 213 179 167 166 177 185 188 189 195 200 195 183 178 173 170 168 173 168 159 159 139 113 98 96 120 136 130 141 160 164 158 141 145 151 129 112 110 135 100 115 109 91
191 178 196 213 208 161 182 213 178 176 181 187 191 195 195 199 204 191 184 177 172 167 165 163 162 157 137 110 90 74 72 77 90 117 161 167 170 157 146 145 143 135 128 133 137 136 124 147 164
159 169 211 233 199 160 200 214 192 183 189 196 199 200 203 207 197 181 179 173 166 164 164 163 160 161 135 117 119 115 126 101 87 190 191 174 160 150 148 148 139 149 159 173 167 145 133 134 127
154 182 217 256 179 149 186 237 209 194 201 201 200 202 203 198 186 183 179 176 173 171 171 169 176 168 161 159 150 153 146 148 160 211 255 177 156 155 165 157 159 162 157 149 149 140 137 150 132
195 191 194 181 79 63 86 318 229 222 211 208 206 203 200 197 193 190 185 184 178 181 182 190 190 177 176 161 126 97 72 58 57 41 331 288 157 161 153 156 164 168 164 171 176 167 164 171 176
244 217 178 154 124 244 144 261 270 225 220 215 209 201 203 200 192 189 189 189 191 194 185 188 184 181 183 166 155 147 144 154 193 195 217 28 106 155 162 162 167 170 164 174 189 174 171 159 185
214 151 132 130 125 73 33 188 282 230 231 231 216 206 202 195 191 190 192 194 194 189 183 187 179 182 186 180 168 156 151 161 149 112 97 55 34 44 157 159 159 168 174 186 185 168 175 173 180
136 76 57 51 72 291 228 177 272 227 220 228 218 208 200 192 191 190 188 185 188 182 182 179 177 190 187 182 176 170 169 160 142 137 135 71 32 28 28 130 143 165 175 188 193 188 182 184 181
106 98 52 15 15 251 233 199 251 246 225 222 217 207 196 190 187 185 182 182 186 185 185 180 179 191 185 183 185 182 179 168 166 169 174 159 133 93 270 142 146 151 175 186 170 169 193 191 189
170 142 156 181 208 260 271 234 255 262 248 225 208 192 183 184 186 186 186 186 189 189 185 182 184 191 183 181 184 181 173 168 175 176 171 172 186 203 186 154 147 151 162 173 152 155 197 192 205
142 166 159 129 133 155 270 280 298 289 311 244 173 171 185 188 184 183 183 185 186 186 187 184 183 186 184 182 177 173 170 170 174 169 164 168 181 183 159 150 140 141 150 158 150 168 209 175 193
143 143 107 120 142 212 275 269 256 272 257 238 194 186 191 181 178 178 180 183 183 184 182 177 180 185 183 176 179 177 173 175 167 154 159 168 174 159 134 134 136 127 148 151 138 160 194 155 222
116 106 109 114 147 154 217 262 232 225 222 207 204 186 175 171 174 171 175 178 174 171 170 170 174 174 177 176 171 165 166 165 156 161 174 175 165 157 153 155 153 159 189 185 164 197 187 183 260
150 158 146 148 190 167 171 257 276 219 219 189 178 169 158 156 151 154 159 156 157 160 162 167 168 173 181 175 163 163 160 156 160 169 174 168 168 170 170 166 170 185 187 185 180 214 219 204 224